TimeCDT,TemperatureF,Dew PointF,Humidity,Sea Level PressureIn,VisibilityMPH,Wind Direction,Wind SpeedMPH,Gust SpeedMPH,PrecipitationIn,Events,Conditions,WindDirDegrees,DateUTC
12:55 AM,38.1,36.3,93,30.21,10.0,NW,5.8,-,N/A,,Clear,320,2012-10-06 05:55:00
1:55 AM,36.9,36.1,97,30.23,10.0,West,3.5,-,N/A,,Clear,270,2012-10-06 06:55:00
2:55 AM,37.0,36.3,97,30.22,10.0,West,5.8,-,N/A,,Clear,270,2012-10-06 07:55:00
3:55 AM,36.3,35.2,96,30.21,10.0,West,4.6,-,N/A,,Clear,280,2012-10-06 08:55:00
4:55 AM,36.3,34.3,93,30.22,10.0,WNW,5.8,-,N/A,,Clear,300,2012-10-06 09:55:00
5:55 AM,37.6,35.2,91,30.25,10.0,NW,10.4,-,N/A,,Partly Cloudy,310,2012-10-06 10:55:00
6:55 AM,38.3,35.4,89,30.25,10.0,NNW,6.9,-,N/A,,Partly Cloudy,340,2012-10-06 11:55:00
7:55 AM,40.3,36.0,85,30.24,10.0,North,9.2,-,N/A,,Scattered Clouds,350,2012-10-06 12:55:00
8:55 AM,41.5,34.5,76,30.25,10.0,North,5.8,-,N/A,,Scattered Clouds,360,2012-10-06 13:55:00
9:55 AM,42.8,34.2,72,30.26,10.0,North,6.9,-,N/A,,Scattered Clouds,360,2012-10-06 14:55:00
10:55 AM,46.0,33.1,61,30.27,10.0,NNW,6.9,-,N/A,,Mostly Cloudy,330,2012-10-06 15:55:00
11:55 AM,48.6,32.9,55,30.26,10.0,NNW,12.7,-,N/A,,Scattered Clouds,340,2012-10-06 16:55:00
12:55 PM,50.0,34.5,55,30.25,10.0,West,3.5,-,N/A,,Partly Cloudy,280,2012-10-06 17:55:00
1:55 PM,49.8,32.7,52,30.25,10.0,NW,12.7,-,N/A,,Scattered Clouds,310,2012-10-06 18:55:00
2:55 PM,49.5,33.6,54,30.24,10.0,WNW,9.2,-,N/A,,Scattered Clouds,300,2012-10-06 19:55:00
3:55 PM,49.1,32.7,53,30.22,10.0,WNW,8.1,-,N/A,,Partly Cloudy,290,2012-10-06 20:55:00
4:55 PM,48.6,34.0,57,30.22,10.0,NW,10.4,-,N/A,,Partly Cloudy,310,2012-10-06 21:55:00
5:55 PM,47.3,31.8,55,30.22,10.0,NW,8.1,-,N/A,,Clear,320,2012-10-06 22:55:00
6:55 PM,46.4,31.5,56,30.22,10.0,NW,6.9,-,N/A,,Partly Cloudy,320,2012-10-06 23:55:00
7:55 PM,45.5,33.6,63,30.24,10.0,NW,6.9,-,N/A,,Clear,320,2012-10-07 00:55:00
8:55 PM,44.6,34.0,66,30.26,10.0,NW,9.2,-,N/A,,Overcast,320,2012-10-07 01:55:00
9:55 PM,44.1,33.6,67,30.26,10.0,NNW,5.8,-,N/A,,Overcast,330,2012-10-07 02:55:00
10:55 PM,42.8,33.4,70,30.26,10.0,NNW,5.8,-,N/A,,Overcast,340,2012-10-07 03:55:00
11:55 PM,40.6,33.1,74,30.25,10.0,NW,5.8,-,N/A,,Overcast,320,2012-10-07 04:55:00